Flag for Canada Weather past 2 weeks in Winnipeg, Manitoba, Canada

Now
68 °F

Clear.


Feels Like: 68 °F
Forecast: 58 / 74 °F
Wind: 21 mph from South

Location: Winnipeg Int. Airportman.

Current Time: Sep 23, 2014 at 10:01:47 PM

Latest Report: Sep 23, 2014 at 9:00 PM


Visibility: 15 mi

Pressure: 29.93 "Hg

Humidity: 69%

Dew point: 57 °F

Location of WinnipegLocation

Historic Weather in Winnipeg — Graph

°F

Winnipeg temperature yesterday

Maximum temperature yesterday: 79 °F (at 3:00 PM)
Minimum temperature yesterday: 48 °F (at 7:00 AM)
Average temperature yesterday: 63 °F

Past Weeks' High & Low Weather Summary

 TemperatureHumidityPressure
High79 °F (Sep 22, 3:00 PM)100% (Sep 14, 1:00 AM)30.47 "Hg (Sep 14, 1:00 AM)
Low34 °F (Sep 12, 7:00 AM)28% (Sep 15, 3:00 PM)29.45 "Hg (Sep 19, 8:00 AM)
Average52 °F72%30.06 "Hg
* Reported Sep 8 9:00 PM — Sep 23 9:00 PM, Winnipeg, Weather by CustomWeather, © 2014

Note: Actual official high and low records may vary slightly from our data, if they occured in-between our weather recording intervals... More about our weather records

Advertising

Winnipeg weather history for previous 24 hours

 ConditionsComfort  
Time TempWeatherWind HumidityBarometerVisibility
9:00 PM
Sep 23
68 °FClear.21 mph69%29.93 "Hg15 mi
8:00 PM72 °FPassing clouds.20 mph61%29.92 "Hg15 mi
7:00 PM75 °FPassing clouds.18 mph57%29.92 "Hg15 mi
6:00 PM77 °FPassing clouds.20 mph61%29.92 "Hg15 mi
5:00 PM77 °FWarm.10 mph57%29.92 "HgN/A
4:00 PM79 °FPassing clouds.21 mph48%29.92 "Hg15 mi
3:00 PM79 °FPassing clouds.21 mph48%29.93 "Hg15 mi
2:00 PM77 °FPassing clouds.24 mph51%29.95 "Hg15 mi
1:00 PM75 °FSunny.22 mph50%29.96 "Hg15 mi
12:00 PM72 °FSunny.23 mph53%29.97 "Hg15 mi
11:00 AM68 °FSunny.20 mph60%29.98 "Hg15 mi
10:00 AM63 °FSunny.17 mph68%29.98 "Hg15 mi
9:00 AM57 °FSunny.16 mph77%29.98 "Hg15 mi
8:00 AM54 °FClear.16 mph82%29.99 "Hg15 mi
7:00 AM54 °FClear.14 mph82%29.99 "Hg15 mi
6:00 AM54 °FClear.15 mph82%29.99 "Hg15 mi
5:00 AM54 °FClear.13 mph82%29.99 "Hg15 mi
4:00 AM55 °FClear.14 mph77%29.99 "Hg15 mi
3:00 AM55 °FClear.12 mph77%30.00 "Hg15 mi
2:00 AM55 °FClear.10 mph77%30.01 "Hg15 mi
1:00 AM57 °FClear.12 mph72%30.00 "Hg15 mi
12:00 AM59 °FClear.12 mph68%30.01 "Hg15 mi
11:00 PM
Sep 22
61 °FClear.13 mph63%30.01 "Hg15 mi
10:00 PM63 °FClear.12 mph59%30.00 "Hg15 mi
Weather by CustomWeather, © 2014

See weather overviewHow to use our weather pages